Regional Weather Roundup
Issued by NWS

Home | Current Version | Previous Version | Graphics & Text | Print | Product List | Glossary On
Versions: 1 2 3 4 5 6 7 8 9 10 11 12 13 14 15 16 17 18 19 20 21 22 23 24 25 26 27 28 29 30 31 32 33 34 35 36 37 38 39 40 41 42 43 44 45 46 47 48 49 50
000
ASUS43 KLMK 051202
RWRKY
KENTUCKY REGIONAL WEATHER ROUNDUP
NATIONAL WEATHER SERVICE LOUISVILLE KY
700 AM EST THU MAR 05 2015

NOTE "FAIR" INDICATES FEW OR NO CLOUDS BELOW 12,000 FEET
WITH NO SIGNIFICANT WEATHER AND/OR OBSTRUCTIONS TO VISIBILITY.

KYZ001>023-026-027-061>063-070>075-051300-
WESTERN AND SOUTH CENTRAL KENTUCKY

CITY           SKY/WX    TMP DP  RH WIND       PRES   REMARKS
PADUCAH        CLOUDY    20   7  57 N16G23    30.40R WCI   6
HENDERSON      CLOUDY    19   7  58 N8        30.36S WCI   9
OWENSBORO      FLURRIES  18  11  74 N8        30.35S WCI   8
HOPKINSVILLE   NOT AVBL
BOWLING GREEN  LGT SNOW  21  17  84 N7        30.28R FOG     WCI  12
GLASGOW        NOT AVBL
$$

KYZ024-025-028>034-038-045-046-053-051300-
NORTH CENTRAL KENTUCKY

CITY           SKY/WX    TMP DP  RH WIND       PRES   REMARKS
LOUISVILLE/SDF LGT SNOW  20  17  88 N9        30.32R VSB 3/4 WCI   9
LOUISVILLE/LOU LGT SNOW  20  16  84 N8        30.32R VSB 3/4 WCI  10
FORT KNOX      LGT SNOW  18  15  87 N12       30.27R FOG     WCI   6
$$

KYZ035>037-039>044-047>052-055>060-089>105-051300-
NORTHEAST KENTUCKY

CITY           SKY/WX    TMP DP  RH WIND       PRES   REMARKS
LEXINGTON      FOG       17  14  88 N15       30.24R VSB 3/4 WCI   2
COVINGTON      LGT SNOW  18  11  74 N10       30.28R FOG     WCI   6
FRANKFORT      LGT SNOW  17  14  88 N10       30.26R FOG     WCI   5
$$

KYZ054-064>069-076>088-106>120-051300-
SOUTHEAST KENTUCKY

CITY           SKY/WX    TMP DP  RH WIND       PRES   REMARKS
JACKSON        LGT SNOW  22  19  89 VRB7      30.13R FOG     WCI  13
LONDON         FLURRIES  25  19  78 N14       30.14R WCI  13
SOMERSET       NOT AVBL
MIDDLESBORO    NOT AVBL
MONTICELLO     SNOW      23  22  96 N17       30.21S VSB 1/2 WCI   9
$$




USA.gov is the U.S. government's official web portal to all federal, state and local government web resources and services.